Location: Northcutt
(34.7304°N, 84.4305°W)
Time: 09:11:17
(UTC+00:00)

deb Explorer IX - Pass Details

Date: 09 October 2022
Orbit: 533 x 1057 km, 38.8° (Epoch: 02 December)

Event Time Altitude Azimuth Distance (km) Brightness Sun altitude
Exits shadow 08:55:57 21° 83° (E) 1,343 ? -33.9°
Drops below altitude 10° 08:57:36 10° 76° (ENE) 1,966 ? -33.6°
Sets 09:00:07 0° 72° (ENE) 2,952 ? -33.1°
